Location: Guadanolo
(41.9167°N, 12.9333°E)
Time: 20:09:24
(UTC+00:00)

Nadezhda 1 Rocket - Pass Details

Date: 24 December 2019
Orbit: 941 x 1006 km, 83.0° (Epoch: 20 January)

Event Time Altitude Azimuth Distance (km) Brightness Sun altitude
Rises 17:45:42 0° 357° (N) 3,618 6.9 -22.2°
Reaches altitude 10° 17:48:17 10° 2° (N) 2,667 6.1 -22.7°
Enters shadow 17:53:50 51° 66° (ENE) 1,175 4.0 -23.7°
Exits shadow 17:58:10 21° 147° (SSE) 1,996 5.4 -24.5°
Drops below altitude 10° 18:00:04 10° 154° (SSE) 2,656 6.1 -24.8°
Sets 18:02:37 0° 159° (SSE) 3,603 6.9 -25.3°
